sat.trackr.live / text

‹ back to catalog

BSAT-3C (JCSAT-110R)

NORAD 37776 · 2011-041B

PAYLOAD ACTIVE UNKNOWN

§ Identity

Operator
Country
JPN
Launch date
2011-08-06
Launch site
FRGUI
Launch vehicle
Mass (kg)
RCS (m²)
23.59

Purposes: comms

External: N2YO · Heavens-Above · Gunter

§ Orbital elements

Epoch: 2026-09-20T00:20:08.946816Z

Period
1,436.07 min
Inclination
0.0145°
Eccentricity
0.0000132
Mean motion
1.00273438 rev/d
Perigee alt
35,785.6 km
Apogee alt
35,786.7 km
Semi-major
42,164.3 km
B*
0.0000e+0
RAAN
352.9178°
Arg perigee
241.5612°
Mean anomaly
239.4353°
Rev number
5,142

§ Raw data

BSAT-3C (JCSAT-110R)1 37776U 11041B   26263.01399244 -.00000355  00000+0  00000+0 0  99902 37776   0.0145 352.9178 0000132 241.5612 239.4353  1.00273438 51423

JSON: /api/v1/satellites/37776 · /tle

For live sub-satellite position, see the globe view (requires WebGL).

§ Visibility from observer

Set your observer location to see the next 7 days of passes ≥ 10°. The values pass through the URL so the page stays shareable.

No JS? Fill the form by hand. The geolocation button needs JavaScript.